SCP
0 0 0 0 0 0 0 0 0 0 0 0 0 0 0 0 0 0 0 0 0 0 0 -0 0 -0 0 0 0 -0 -0 -0 0 0 0 0 0 0 0 -0 -0 -0 -0 -0 -0 -0 -0 -0 -0
0 0 0 0 0 0 0 -0 0 0 0 0 0 0 0 0 0 0 0 0 0 0 0 0 0 0 0 0 0 0 -0 0 0 -0 -0 0 0 0 -0 -0 -0 -0 -0 -0 -0 -0 -0 -0 -0
0 0 1 0 0 0 0 -0 0 -0 0 0 0 0 0 0 0 0 0 0 0 0 0 0 0 0 0 0 -0 -0 0 0 0 -0 -0 0 0 -0 -0 -0 -0 -0 -0 -0 -0 -0 -0 -0 -0
0 0 0 0 0 0 0 0 0 0 0 0 0 0 0 0 0 0 0 0 0 0 0 0 0 0 0 0 0 -0 -0 0 -0 -0 -0 0 0 0 -0 -0 -0 -0 -0 -0 -0 -0 -0 -0 -0
0 0 0 0 0 0 0 0 0 0 0 0 0 0 0 0 0 0 0 0 0 0 0 0 0 0 0 0 0 0 0 -0 -0 -0 -0 0 0 0 0 -0 -0 -0 -0 -0 -0 -0 -0 0 0
0 0 0 0 0 0 0 0 0 0 0 0 0 0 0 0 0 0 0 0 0 0 0 0 0 0 0 0 0 0 0 0 0 -0 -0 -0 0 0 0 0 0 -0 -0 0 0 0 0 0 0
0 0 0 0 0 0 0 0 0 0 0 0 0 0 0 0 0 0 0 0 0 0 0 0 0 0 0 0 0 0 0 0 0 0 0 -0 0 0 0 -0 0 -0 0 0 0 0 0 0 0
0 0 0 0 0 0 0 0 0 0 0 0 0 0 0 0 0 0 0 0 0 0 0 0 0 0 0 0 0 0 0 0 0 0 0 0 0 0 0 0 0 0 0 0 0 0 0 0 0
0 0 0 0 0 0 0 0 0 0 0 0 0 0 0 0 0 0 0 0 0 0 0 0 0 0 0 0 0 0 0 0 0 0 0 0 0 0 0 0 0 0 0 0 0 0 0 0 0
0 0 0 0 0 0 0 0 0 0 0 0 0 0 0 0 0 0 0 0 0 0 0 0 0 0 0 0 0 0 0 0 0 0 0 0 0 0 0 0 0 0 0 0 0 0 0 0 0
0 0 0 0 0 0 0 0 0 0 0 0 0 0 0 0 0 0 0 0 0 0 0 0 0 0 0 0 0 0 0 0 0 0 0 0 0 0 0 0 0 0 0 0 0 0 0 0 0
0 0 0 0 0 0 0 0 0 0 0 0 0 0 0 0 0 0 0 0 0 0 0 0 0 0 0 0 0 0 0 0 0 0 0 0 0 0 0 0 0 0 0 0 0 0 0 0 0
0 0 0 0 0 0 0 0 0 0 0 0 0 0 0 0 0 0 0 0 0 0 0 0 0 0 0 0 0 0 0 0 0 0 0 0 0 0 0 0 0 0 0 0 0 0 0 0 0
0 0 0 0 0 0 0 0 0 0 0 0 0 0 0 0 0 0 0 0 0 0 0 0 0 0 0 0 0 0 0 0 0 0 0 0 0 0 0 0 0 0 0 0 0 0 0 0 0
0 0 0 0 0 0 0 0 0 0 0 0 0 0 0 0 0 0 0 0 0 0 0 0 0 0 0 0 0 0 0 0 0 0 0 0 0 0 0 0 0 0 0 0 0 0 0 0 0
0 0 0 0 0 0 0 0 0 0 0 0 0 0 0 0 0 0 0 0 0 0 0 0 0 0 0 0 0 0 0 0 0 0 0 0 0 0 0 0 0 0 0 0 0 0 0 0 0
0 0 0 0 0 0 0 0 0 0 0 0 0 0 0 0 0 0 0 0 0 0 0 0 0 0 0 0 0 0 0 0 0 0 0 0 0 0 0 0 0 0 0 0 0 0 0 0 0
0 0 0 0 0 0 0 0 0 0 0 0 0 1 0 0 0 0 0 0 0 0 0 0 0 0 0 0 0 0 0 0 0 0 0 0 0 0 0 0 0 0 0 0 0 0 0 0 0
0 0 0 0 0 0 0 0 0 0 0 0 0 0 0 0 0 0 0 0 0 0 0 0 0 0 0 0 0 0 0 0 0 0 0 0 0 0 0 0 0 0 0 0 0 0 0 0 0
0 0 0 0 0 0 0 0 0 0 0 0 0 0 0 0 0 0 0 0 0 0 0 0 0 0 0 0 0 0 0 0 0 0 0 0 0 0 0 0 0 0 0 0 0 0 0 0 0
0 0 0 0 0 0 0 0 0 0 0 0 0 0 0 0 0 0 0 0 0 0 0 0 0 0 0 0 0 0 0 0 0 0 0 0 0 0 0 0 0 0 0 0 0 0 0 0 0
0 0 0 0 0 0 0 0 0 0 0 0 0 0 0 0 0 0 0 0 0 0 0 0 0 0 0 0 0 0 0 0 0 0 0 0 0 0 0 0 0 0 0 0 0 0 0 0 0
0 0 0 0 0 0 0 0 0 0 0 0 0 0 0 0 0 0 0 0 0 0 0 0 0 0 0 0 0 0 0 0 0 0 0 0 0 0 0 0 0 0 0 0 0 0 0 0 0
0 0 0 0 0 0 0 0 0 0 0 0 0 0 0 0 0 0 0 0 0 0 0 0 0 0 0 0 0 0 0 0 0 0 0 0 0 0 0 0 0 0 0 0 0 0 0 0 0
0 0 0 0 0 0 0 0 0 0 0 0 0 0 0 0 0 0 0 0 0 0 0 0 0 0 0 0 0 0 0 0 0 0 0 0 0 0 0 0 0 0 0 0 0 0 0 0 0
0 0 0 0 0 0 0 0 0 0 0 0 0 0 0 0 0 0 0 0 0 0 0 0 0 0 0 0 0 0 0 0 0 0 0 0 0 0 0 0 0 0 0 0 0 0 0 0 0
0 0 0 0 0 0 0 0 0 0 0 0 0 0 0 0 0 0 0 0 0 0 0 0 0 0 0 0 0 0 0 0 0 0 0 0 0 0 0 0 0 0 0 0 0 0 0 0 0
0 0 0 0 0 0 0 0 0 0 0 0 0 0 0 0 0 0 0 0 0 0 0 0 0 0 0 0 0 0 0 0 0 0 0 0 0 0 0 0 0 0 0 0 0 0 0 0 0
0 0 0 0 0 0 0 0 0 0 0 0 0 0 0 0 0 0 0 0 0 0 0 0 0 0 0 0 0 0 0 0 0 0 0 0 0 0 0 0 0 0 0 0 0 0 0 0 0
0 0 0 0 0 0 0 0 0 0 0 0 0 0 0 0 0 0 0 0 0 0 0 0 0 0 0 0 0 0 0 0 0 0 0 0 0 0 0 0 0 0 0 0 0 0 0 0 0
Wind_Speed_500mb
12 7 12 16 12 16 33 34 21 19 21 33 31 25 22 26 11 2 28 25 46 51 52 48 39 33 31 31 31 30 32 36 40 39 38 32 34 33 33 29 27 20 14 6 8 14 22 26 25
7 19 17 20 17 23 28 35 28 18 20 28 25 22 23 31 12 19 31 36 48 53 50 48 38 33 32 33 35 35 37 38 40 41 34 32 30 29 27 20 14 11 8 4 12 18 23 25 25
11 21 10 8 25 29 29 33 26 33 17 20 19 15 27 8 12 23 14 51 52 53 46 45 38 35 36 40 40 41 39 40 40 37 33 30 27 27 27 21 16 14 9 13 18 19 19 20 21
3 17 19 18 30 41 37 24 21 32 17 22 25 18 7 5 13 18 36 52 54 52 45 45 39 39 43 42 43 40 39 38 38 35 32 26 23 21 18 15 13 8 9 13 17 18 17 16 18
18 18 21 27 39 36 28 31 8 24 28 29 27 14 16 8 14 25 45 59 55 52 47 46 41 43 43 45 40 39 39 35 39 34 27 20 16 14 17 18 15 11 13 15 16 16 15 15 16
13 12 19 32 41 42 24 37 23 21 24 18 22 27 13 12 22 39 54 63 50 51 47 47 43 46 44 44 42 40 37 38 34 25 19 13 11 11 16 22 20 17 16 17 16 15 14 12 11
12 11 22 31 34 43 36 35 28 29 23 21 13 22 9 20 26 46 59 62 53 51 49 47 48 46 45 44 43 38 34 29 25 20 15 11 10 13 14 16 16 19 18 18 16 14 11 8 7
23 3 29 32 29 50 38 32 24 34 26 19 13 10 13 34 42 55 56 59 44 47 47 44 47 51 46 43 40 37 33 28 24 19 15 14 13 12 18 19 15 17 17 14 12 9 6 4 3
46 12 20 44 51 30 34 36 25 14 14 18 15 10 5 47 52 62 60 55 52 50 45 44 46 45 43 44 41 37 33 29 25 20 16 15 14 15 15 18 18 17 15 12 9 5 2 1 3
15 16 35 51 44 33 23 35 28 16 29 22 14 6 34 52 62 69 70 68 63 58 50 46 45 46 43 38 43 40 36 29 22 18 20 19 17 13 15 17 17 16 12 9 5 3 4 4 6
19 17 32 25 31 19 37 39 24 14 28 31 29 32 41 52 57 58 63 64 65 50 60 47 44 46 46 41 45 41 36 27 21 19 22 22 22 26 17 13 15 12 12 4 3 2 4 7 5
28 42 11 20 13 10 8 38 28 25 28 6 21 46 45 54 59 63 67 60 65 65 61 59 47 43 43 41 45 43 38 31 23 22 22 23 20 19 17 9 10 10 11 10 3 5 9 7 8
22 18 42 18 6 14 6 26 31 32 33 10 22 39 42 45 54 48 47 51 58 63 62 60 56 50 42 53 47 43 39 31 24 24 23 22 19 20 19 17 14 11 12 8 7 7 9 10 11
53 53 36 32 22 12 10 25 15 41 20 13 30 38 36 44 53 45 53 55 61 61 65 63 59 58 54 44 51 41 39 29 27 26 25 25 21 19 17 15 16 14 13 11 8 7 6 6 10
21 28 23 34 36 11 7 28 21 15 27 25 32 35 34 38 45 46 47 57 61 61 56 60 56 57 52 41 53 37 37 30 29 27 27 25 22 18 15 12 11 12 11 10 7 7 7 6 7
13 23 20 24 41 20 12 18 30 8 25 29 35 36 38 37 37 35 37 51 54 55 63 60 56 55 52 40 45 37 34 31 28 26 26 25 20 16 13 13 12 12 11 9 8 6 5 8 14
2 6 20 19 38 15 14 8 7 2 9 20 30 35 31 28 24 29 32 41 48 49 51 53 52 52 53 39 37 46 37 34 28 27 27 24 19 15 13 12 12 14 12 11 10 10 12 15 11
11 11 9 14 9 22 37 16 7 2 15 6 14 27 30 27 23 24 30 38 44 45 50 49 44 46 50 49 34 34 34 36 31 31 29 28 24 23 20 17 15 14 12 11 11 9 9 10 12
36 26 17 11 10 6 36 37 20 4 9 17 1 10 26 31 30 26 28 35 37 38 38 43 33 36 43 44 48 41 41 37 36 36 30 30 27 26 24 21 19 15 12 13 14 14 15 15 15
35 35 13 19 12 8 2 14 33 9 11 8 2 15 15 24 40 40 29 33 42 40 36 38 35 34 35 42 43 46 41 42 39 32 33 32 30 29 26 23 20 19 18 17 18 18 19 19 19
36 34 29 18 16 3 8 9 26 8 7 5 14 26 26 18 21 36 32 27 37 45 48 41 34 32 35 36 36 45 42 39 36 38 35 35 31 27 23 23 22 21 21 22 22 22 24 24 26
20 27 26 31 22 5 7 7 33 27 13 5 13 21 20 18 16 28 31 27 23 20 29 37 39 36 35 33 31 37 39 33 27 28 30 30 26 26 26 25 25 27 28 28 28 27 28 30 33
23 38 31 25 14 13 15 11 9 28 16 19 13 21 20 14 15 16 15 29 26 14 12 18 22 28 35 42 37 37 39 34 32 32 36 36 31 31 30 35 34 35 35 34 33 32 33 36 37
34 39 30 17 10 8 18 11 13 17 13 21 25 15 20 19 17 14 14 17 19 31 33 19 18 20 21 27 30 30 41 48 46 38 32 36 38 43 44 44 44 42 43 43 41 42 41 42 43
27 23 7 7 5 2 13 11 15 13 8 8 27 26 20 19 17 15 12 13 16 24 35 38 44 45 45 42 47 50 51 56 54 48 39 35 41 44 44 41 42 44 46 44 43 42 44 45 45
28 7 6 9 12 9 7 7 7 10 7 10 19 28 22 20 17 14 11 10 14 16 21 22 27 27 28 28 29 34 41 54 48 57 52 50 56 47 45 38 35 34 33 32 35 35 34 38 36
4 8 7 10 4 7 11 8 10 8 11 11 16 20 19 14 15 11 8 10 9 10 15 21 23 25 23 19 19 20 26 29 30 28 31 36 40 42 37 37 37 34 32 32 34 32 34 34 35
11 7 7 3 11 8 9 10 11 9 10 12 14 17 16 16 14 11 3 3 4 8 12 12 13 15 16 19 20 22 20 22 23 24 28 33 37 38 31 29 30 30 31 27 26 26 27 24 23
7 1 2 5 7 3 11 11 8 6 4 14 19 20 18 18 18 17 19 16 9 5 6 8 11 10 10 13 16 18 20 23 25 22 24 27 29 29 30 28 27 23 22 20 18 18 17 14 14
1 15 6 6 3 6 6 8 8 10 13 18 22 20 19 17 18 18 18 18 19 19 12 9 9 9 10 11 12 14 15 16 17 19 18 21 21 24 25 24 20 21 19 15 15 15 13 13 13
Wind_Direction_500mb
308 171 166 198 211 233 234 238 227 234 229 218 226 220 233 240 231 210 144 163 164 173 170 171 172 168 168 164 161 156 152 150 147 137 125 118 131 135 140 134 127 125 124 117 50 80 83 103 97
287 205 199 230 236 214 229 238 203 225 199 190 202 217 224 233 81 114 152 145 165 171 169 171 171 168 164 161 157 153 152 151 148 142 128 126 129 141 148 147 150 144 179 183 126 106 97 99 100
301 212 232 234 224 231 231 225 227 212 181 186 195 226 212 159 99 142 163 150 176 169 168 170 168 164 160 153 153 154 152 153 148 145 139 134 126 127 136 141 144 133 116 124 123 115 107 103 102
36 231 249 235 222 228 239 255 208 226 192 214 226 186 113 122 146 161 154 157 173 168 173 165 165 161 156 154 154 155 154 152 152 147 145 142 141 143 145 155 158 165 144 137 126 122 115 107 101
208 280 235 217 233 231 223 248 274 233 197 207 215 171 142 170 148 157 151 168 165 164 180 165 164 160 157 156 157 157 157 158 156 151 152 156 162 172 182 175 176 180 144 145 134 130 123 113 105
189 259 233 222 214 229 208 235 223 244 207 194 209 218 131 183 173 151 159 161 156 170 174 165 164 161 160 159 155 154 154 154 159 161 170 179 185 185 180 183 172 173 180 150 145 141 132 119 104
211 190 240 226 223 224 212 225 217 234 208 184 230 212 143 154 167 152 160 155 166 176 163 164 164 163 164 165 164 162 162 167 173 178 186 192 190 176 169 162 160 169 154 153 148 144 138 122 99
207 229 214 246 225 223 207 219 223 229 231 149 201 210 174 176 161 153 159 164 161 166 167 163 165 164 166 170 170 170 172 176 181 185 187 188 180 174 177 166 151 146 152 153 151 150 145 122 77
200 216 220 217 229 223 227 219 197 240 219 187 159 332 117 170 161 153 163 163 164 168 162 163 165 164 166 172 173 170 171 171 173 179 179 173 164 142 121 158 159 160 164 166 168 172 189 324 350
212 220 224 228 232 230 207 226 217 204 216 197 159 141 152 162 165 161 165 172 171 167 164 168 166 168 169 174 176 179 175 175 182 186 173 143 155 165 193 173 168 174 178 182 195 229 271 298 337
202 240 224 270 245 290 239 217 208 235 224 208 190 188 165 168 170 170 171 176 176 168 174 167 168 172 171 183 179 180 186 179 185 185 167 172 173 193 181 189 190 183 182 167 208 264 345 259 238
188 213 178 219 316 262 244 232 209 233 248 281 188 184 173 175 179 177 173 177 179 185 182 175 172 175 175 184 182 183 185 182 182 181 177 178 173 160 165 173 170 185 171 197 198 274 266 287 293
205 173 204 192 228 297 286 264 223 200 266 260 175 170 180 183 183 183 177 183 180 184 188 186 182 171 183 188 182 183 187 191 182 184 179 172 174 168 174 184 191 188 215 209 236 268 292 287 292
206 206 182 186 201 268 272 255 224 207 244 218 180 179 184 185 185 178 188 183 191 191 193 189 189 186 185 183 181 183 191 186 182 184 179 174 178 176 173 184 187 201 213 224 233 248 287 286 299
208 196 214 180 185 186 297 240 218 164 224 226 187 186 183 183 184 184 192 199 201 194 190 192 194 194 196 190 191 185 194 188 185 190 188 185 185 187 181 183 191 197 219 228 260 277 296 327 305
214 179 169 175 175 175 92 248 218 184 193 221 201 184 180 174 179 181 190 200 200 204 200 191 195 195 197 193 194 185 196 191 192 193 199 198 198 200 200 202 210 218 232 247 251 255 263 269 295
330 168 139 156 188 132 151 251 108 187 134 229 218 191 173 156 166 187 192 208 203 209 206 195 198 198 198 184 205 189 199 192 196 198 202 210 204 216 218 221 229 246 248 253 252 272 272 301 316
142 112 152 121 153 174 188 213 261 135 54 276 245 212 192 160 160 172 191 203 203 204 205 204 204 199 201 188 203 201 207 206 202 204 212 214 212 216 216 217 228 241 246 259 277 288 295 319 319
199 135 130 59 52 186 201 196 223 340 72 23 26 227 147 181 182 195 192 196 201 196 198 198 204 201 204 202 197 195 205 209 209 211 211 219 219 222 227 227 228 237 250 261 272 282 294 305 310
138 129 111 94 41 56 136 212 206 145 84 39 71 147 145 149 195 212 208 189 182 187 189 198 205 207 209 213 216 213 218 220 221 222 228 229 231 232 236 234 242 244 247 261 270 280 285 291 294
154 163 158 131 123 78 145 227 225 163 149 72 73 84 118 141 153 166 189 174 186 193 196 194 203 206 214 218 220 219 220 231 232 227 230 228 231 236 238 246 248 253 260 262 267 269 273 282 285
143 157 130 138 149 166 171 211 200 171 144 122 75 100 93 103 133 160 156 147 153 183 203 205 206 205 211 215 220 215 212 226 222 228 226 225 226 229 236 243 248 252 257 262 265 266 269 271 277
130 135 136 139 133 162 189 266 99 140 160 163 108 99 98 94 135 140 165 186 217 226 214 189 197 210 214 221 218 221 221 217 222 219 229 224 228 236 244 249 251 253 254 255 256 261 268 271 273
125 113 107 105 110 222 172 231 147 175 175 159 133 101 99 97 93 104 123 153 186 205 225 230 211 203 221 218 220 235 239 237 234 229 239 234 234 237 246 246 244 249 254 256 257 258 262 267 272
151 144 107 94 170 240 151 194 63 95 80 132 153 137 107 105 96 96 103 118 144 166 198 210 239 237 236 241 217 233 242 254 246 238 241 255 256 264 258 261 254 257 254 258 262 266 268 274 277
168 49 112 137 175 155 145 217 108 76 71 111 120 148 142 102 94 91 97 97 107 138 162 178 191 195 204 208 208 214 220 232 238 242 235 234 245 250 256 254 252 258 259 265 268 268 273 278 278
134 125 18 99 51 163 172 111 127 126 112 140 141 152 153 159 141 93 92 100 115 147 162 168 177 177 180 190 199 212 222 223 227 219 224 229 239 239 241 254 252 252 257 262 264 262 268 267 273
47 111 137 168 167 152 182 157 90 155 136 147 144 139 152 177 193 217 233 59 145 170 189 177 171 178 177 196 209 212 212 223 232 237 236 238 240 242 235 232 253 256 264 255 257 259 259 256 256
108 170 269 64 340 131 155 115 23 33 107 144 133 127 138 146 172 199 228 242 237 238 207 186 194 185 199 217 226 231 234 232 229 229 235 236 240 243 241 239 250 256 252 243 245 249 243 232 224
52 189 328 330 73 22 358 91 61 78 100 119 118 120 128 138 145 160 185 196 210 215 212 203 202 195 194 201 217 226 233 237 234 236 232 237 246 246 240 241 230 245 242 236 220 224 230 211 200
Wind_Speed_850mb
12 7 12 16 12 16 33 34 21 19 21 33 31 25 22 26 11 2 28 25 46 51 52 48 39 33 31 31 31 30 32 36 40 39 38 32 34 33 33 29 27 20 14 6 8 14 22 26 25
7 19 17 20 17 23 28 35 28 18 20 28 25 22 23 31 12 19 31 36 48 53 50 48 38 33 32 33 35 35 37 38 40 41 34 32 30 29 27 20 14 11 8 4 12 18 23 25 25
11 21 10 8 25 29 29 33 26 33 17 20 19 15 27 8 12 23 14 51 52 53 46 45 38 35 36 40 40 41 39 40 40 37 33 30 27 27 27 21 16 14 9 13 18 19 19 20 21
3 17 19 18 30 41 37 24 21 32 17 22 25 18 7 5 13 18 36 52 54 52 45 45 39 39 43 42 43 40 39 38 38 35 32 26 23 21 18 15 13 8 9 13 17 18 17 16 18
18 18 21 27 39 36 28 31 8 24 28 29 27 14 16 8 14 25 45 59 55 52 47 46 41 43 43 45 40 39 39 35 39 34 27 20 16 14 17 18 15 11 13 15 16 16 15 15 16
13 12 19 32 41 42 24 37 23 21 24 18 22 27 13 12 22 39 54 63 50 51 47 47 43 46 44 44 42 40 37 38 34 25 19 13 11 11 16 22 20 17 16 17 16 15 14 12 11
12 11 22 31 34 43 36 35 28 29 23 21 13 22 9 20 26 46 59 62 53 51 49 47 48 46 45 44 43 38 34 29 25 20 15 11 10 13 14 16 16 19 18 18 16 14 11 8 7
23 3 29 32 29 50 38 32 24 34 26 19 13 10 13 34 42 55 56 59 44 47 47 44 47 51 46 43 40 37 33 28 24 19 15 14 13 12 18 19 15 17 17 14 12 9 6 4 3
46 12 20 44 51 30 34 36 25 14 14 18 15 10 5 47 52 62 60 55 52 50 45 44 46 45 43 44 41 37 33 29 25 20 16 15 14 15 15 18 18 17 15 12 9 5 2 1 3
15 16 35 51 44 33 23 35 28 16 29 22 14 6 34 52 62 69 70 68 63 58 50 46 45 46 43 38 43 40 36 29 22 18 20 19 17 13 15 17 17 16 12 9 5 3 4 4 6
19 17 32 25 31 19 37 39 24 14 28 31 29 32 41 52 57 58 63 64 65 50 60 47 44 46 46 41 45 41 36 27 21 19 22 22 22 26 17 13 15 12 12 4 3 2 4 7 5
28 42 11 20 13 10 8 38 28 25 28 6 21 46 45 54 59 63 67 60 65 65 61 59 47 43 43 41 45 43 38 31 23 22 22 23 20 19 17 9 10 10 11 10 3 5 9 7 8
22 18 42 18 6 14 6 26 31 32 33 10 22 39 42 45 54 48 47 51 58 63 62 60 56 50 42 53 47 43 39 31 24 24 23 22 19 20 19 17 14 11 12 8 7 7 9 10 11
53 53 36 32 22 12 10 25 15 41 20 13 30 38 36 44 53 45 53 55 61 61 65 63 59 58 54 44 51 41 39 29 27 26 25 25 21 19 17 15 16 14 13 11 8 7 6 6 10
21 28 23 34 36 11 7 28 21 15 27 25 32 35 34 38 45 46 47 57 61 61 56 60 56 57 52 41 53 37 37 30 29 27 27 25 22 18 15 12 11 12 11 10 7 7 7 6 7
13 23 20 24 41 20 12 18 30 8 25 29 35 36 38 37 37 35 37 51 54 55 63 60 56 55 52 40 45 37 34 31 28 26 26 25 20 16 13 13 12 12 11 9 8 6 5 8 14
2 6 20 19 38 15 14 8 7 2 9 20 30 35 31 28 24 29 32 41 48 49 51 53 52 52 53 39 37 46 37 34 28 27 27 24 19 15 13 12 12 14 12 11 10 10 12 15 11
11 11 9 14 9 22 37 16 7 2 15 6 14 27 30 27 23 24 30 38 44 45 50 49 44 46 50 49 34 34 34 36 31 31 29 28 24 23 20 17 15 14 12 11 11 9 9 10 12
36 26 17 11 10 6 36 37 20 4 9 17 1 10 26 31 30 26 28 35 37 38 38 43 33 36 43 44 48 41 41 37 36 36 30 30 27 26 24 21 19 15 12 13 14 14 15 15 15
35 35 13 19 12 8 2 14 33 9 11 8 2 15 15 24 40 40 29 33 42 40 36 38 35 34 35 42 43 46 41 42 39 32 33 32 30 29 26 23 20 19 18 17 18 18 19 19 19
36 34 29 18 16 3 8 9 26 8 7 5 14 26 26 18 21 36 32 27 37 45 48 41 34 32 35 36 36 45 42 39 36 38 35 35 31 27 23 23 22 21 21 22 22 22 24 24 26
20 27 26 31 22 5 7 7 33 27 13 5 13 21 20 18 16 28 31 27 23 20 29 37 39 36 35 33 31 37 39 33 27 28 30 30 26 26 26 25 25 27 28 28 28 27 28 30 33
23 38 31 25 14 13 15 11 9 28 16 19 13 21 20 14 15 16 15 29 26 14 12 18 22 28 35 42 37 37 39 34 32 32 36 36 31 31 30 35 34 35 35 34 33 32 33 36 37
34 39 30 17 10 8 18 11 13 17 13 21 25 15 20 19 17 14 14 17 19 31 33 19 18 20 21 27 30 30 41 48 46 38 32 36 38 43 44 44 44 42 43 43 41 42 41 42 43
27 23 7 7 5 2 13 11 15 13 8 8 27 26 20 19 17 15 12 13 16 24 35 38 44 45 45 42 47 50 51 56 54 48 39 35 41 44 44 41 42 44 46 44 43 42 44 45 45
28 7 6 9 12 9 7 7 7 10 7 10 19 28 22 20 17 14 11 10 14 16 21 22 27 27 28 28 29 34 41 54 48 57 52 50 56 47 45 38 35 34 33 32 35 35 34 38 36
4 8 7 10 4 7 11 8 10 8 11 11 16 20 19 14 15 11 8 10 9 10 15 21 23 25 23 19 19 20 26 29 30 28 31 36 40 42 37 37 37 34 32 32 34 32 34 34 35
11 7 7 3 11 8 9 10 11 9 10 12 14 17 16 16 14 11 3 3 4 8 12 12 13 15 16 19 20 22 20 22 23 24 28 33 37 38 31 29 30 30 31 27 26 26 27 24 23
7 1 2 5 7 3 11 11 8 6 4 14 19 20 18 18 18 17 19 16 9 5 6 8 11 10 10 13 16 18 20 23 25 22 24 27 29 29 30 28 27 23 22 20 18 18 17 14 14
1 15 6 6 3 6 6 8 8 10 13 18 22 20 19 17 18 18 18 18 19 19 12 9 9 9 10 11 12 14 15 16 17 19 18 21 21 24 25 24 20 21 19 15 15 15 13 13 13
Wind_Direction_850mb
308 171 166 198 211 233 234 238 227 234 229 218 226 220 233 240 231 210 144 163 164 173 170 171 172 168 168 164 161 156 152 150 147 137 125 118 131 135 140 134 127 125 124 117 50 80 83 103 97
287 205 199 230 236 214 229 238 203 225 199 190 202 217 224 233 81 114 152 145 165 171 169 171 171 168 164 161 157 153 152 151 148 142 128 126 129 141 148 147 150 144 179 183 126 106 97 99 100
301 212 232 234 224 231 231 225 227 212 181 186 195 226 212 159 99 142 163 150 176 169 168 170 168 164 160 153 153 154 152 153 148 145 139 134 126 127 136 141 144 133 116 124 123 115 107 103 102
36 231 249 235 222 228 239 255 208 226 192 214 226 186 113 122 146 161 154 157 173 168 173 165 165 161 156 154 154 155 154 152 152 147 145 142 141 143 145 155 158 165 144 137 126 122 115 107 101
208 280 235 217 233 231 223 248 274 233 197 207 215 171 142 170 148 157 151 168 165 164 180 165 164 160 157 156 157 157 157 158 156 151 152 156 162 172 182 175 176 180 144 145 134 130 123 113 105
189 259 233 222 214 229 208 235 223 244 207 194 209 218 131 183 173 151 159 161 156 170 174 165 164 161 160 159 155 154 154 154 159 161 170 179 185 185 180 183 172 173 180 150 145 141 132 119 104
211 190 240 226 223 224 212 225 217 234 208 184 230 212 143 154 167 152 160 155 166 176 163 164 164 163 164 165 164 162 162 167 173 178 186 192 190 176 169 162 160 169 154 153 148 144 138 122 99
207 229 214 246 225 223 207 219 223 229 231 149 201 210 174 176 161 153 159 164 161 166 167 163 165 164 166 170 170 170 172 176 181 185 187 188 180 174 177 166 151 146 152 153 151 150 145 122 77
200 216 220 217 229 223 227 219 197 240 219 187 159 332 117 170 161 153 163 163 164 168 162 163 165 164 166 172 173 170 171 171 173 179 179 173 164 142 121 158 159 160 164 166 168 172 189 324 350
212 220 224 228 232 230 207 226 217 204 216 197 159 141 152 162 165 161 165 172 171 167 164 168 166 168 169 174 176 179 175 175 182 186 173 143 155 165 193 173 168 174 178 182 195 229 271 298 337
202 240 224 270 245 290 239 217 208 235 224 208 190 188 165 168 170 170 171 176 176 168 174 167 168 172 171 183 179 180 186 179 185 185 167 172 173 193 181 189 190 183 182 167 208 264 345 259 238
188 213 178 219 316 262 244 232 209 233 248 281 188 184 173 175 179 177 173 177 179 185 182 175 172 175 175 184 182 183 185 182 182 181 177 178 173 160 165 173 170 185 171 197 198 274 266 287 293
205 173 204 192 228 297 286 264 223 200 266 260 175 170 180 183 183 183 177 183 180 184 188 186 182 171 183 188 182 183 187 191 182 184 179 172 174 168 174 184 191 188 215 209 236 268 292 287 292
206 206 182 186 201 268 272 255 224 207 244 218 180 179 184 185 185 178 188 183 191 191 193 189 189 186 185 183 181 183 191 186 182 184 179 174 178 176 173 184 187 201 213 224 233 248 287 286 299
208 196 214 180 185 186 297 240 218 164 224 226 187 186 183 183 184 184 192 199 201 194 190 192 194 194 196 190 191 185 194 188 185 190 188 185 185 187 181 183 191 197 219 228 260 277 296 327 305
214 179 169 175 175 175 92 248 218 184 193 221 201 184 180 174 179 181 190 200 200 204 200 191 195 195 197 193 194 185 196 191 192 193 199 198 198 200 200 202 210 218 232 247 251 255 263 269 295
330 168 139 156 188 132 151 251 108 187 134 229 218 191 173 156 166 187 192 208 203 209 206 195 198 198 198 184 205 189 199 192 196 198 202 210 204 216 218 221 229 246 248 253 252 272 272 301 316
142 112 152 121 153 174 188 213 261 135 54 276 245 212 192 160 160 172 191 203 203 204 205 204 204 199 201 188 203 201 207 206 202 204 212 214 212 216 216 217 228 241 246 259 277 288 295 319 319
199 135 130 59 52 186 201 196 223 340 72 23 26 227 147 181 182 195 192 196 201 196 198 198 204 201 204 202 197 195 205 209 209 211 211 219 219 222 227 227 228 237 250 261 272 282 294 305 310
138 129 111 94 41 56 136 212 206 145 84 39 71 147 145 149 195 212 208 189 182 187 189 198 205 207 209 213 216 213 218 220 221 222 228 229 231 232 236 234 242 244 247 261 270 280 285 291 294
154 163 158 131 123 78 145 227 225 163 149 72 73 84 118 141 153 166 189 174 186 193 196 194 203 206 214 218 220 219 220 231 232 227 230 228 231 236 238 246 248 253 260 262 267 269 273 282 285
143 157 130 138 149 166 171 211 200 171 144 122 75 100 93 103 133 160 156 147 153 183 203 205 206 205 211 215 220 215 212 226 222 228 226 225 226 229 236 243 248 252 257 262 265 266 269 271 277
130 135 136 139 133 162 189 266 99 140 160 163 108 99 98 94 135 140 165 186 217 226 214 189 197 210 214 221 218 221 221 217 222 219 229 224 228 236 244 249 251 253 254 255 256 261 268 271 273
125 113 107 105 110 222 172 231 147 175 175 159 133 101 99 97 93 104 123 153 186 205 225 230 211 203 221 218 220 235 239 237 234 229 239 234 234 237 246 246 244 249 254 256 257 258 262 267 272
151 144 107 94 170 240 151 194 63 95 80 132 153 137 107 105 96 96 103 118 144 166 198 210 239 237 236 241 217 233 242 254 246 238 241 255 256 264 258 261 254 257 254 258 262 266 268 274 277
168 49 112 137 175 155 145 217 108 76 71 111 120 148 142 102 94 91 97 97 107 138 162 178 191 195 204 208 208 214 220 232 238 242 235 234 245 250 256 254 252 258 259 265 268 268 273 278 278
134 125 18 99 51 163 172 111 127 126 112 140 141 152 153 159 141 93 92 100 115 147 162 168 177 177 180 190 199 212 222 223 227 219 224 229 239 239 241 254 252 252 257 262 264 262 268 267 273
47 111 137 168 167 152 182 157 90 155 136 147 144 139 152 177 193 217 233 59 145 170 189 177 171 178 177 196 209 212 212 223 232 237 236 238 240 242 235 232 253 256 264 255 257 259 259 256 256
108 170 269 64 340 131 155 115 23 33 107 144 133 127 138 146 172 199 228 242 237 238 207 186 194 185 199 217 226 231 234 232 229 229 235 236 240 243 241 239 250 256 252 243 245 249 243 232 224
52 189 328 330 73 22 358 91 61 78 100 119 118 120 128 138 145 160 185 196 210 215 212 203 202 195 194 201 217 226 233 237 234 236 232 237 246 246 240 241 230 245 242 236 220 224 230 211 200